Findlay, OH

2:54 PM EDT on June 22, 2017 (GMT -0400)
Findlay

Weather History for KFDY - February, 2013

Change the Weather History Date:

Wednesday, February 13, 2013

  Actual Average Record
Temperature  
Mean Temperature 29 °F -  
Max Temperature 32 °F 32 °F 66 °F (1990)
Min Temperature 26 °F 18 °F 0 °F (1979)
Degree Days  
Heating Degree Days 36    
Moisture  
Dew Point 23 °F    
Average Humidity 81    
Maximum Humidity 89    
Minimum Humidity 72    
Precipitation  
Precipitation 0.00 in - - ()
Sea Level Pressure  
Sea Level Pressure 29.83 in    
Wind  
Wind Speed 5 mph (West)    
Max Wind Speed 9 mph    
Max Gust Speed -    
Visibility 8 miles    
Events      
Averages and records for this station are not official NWS values.
T = Trace of Precipitation, MM = Missing Value Source: NWS Daily Summary

Daily Weather History Graph

Daily Weather History Graph

Search for Another Location

Airport or City:

Trip Planner

Search our weather history database for the weather conditions in past years. The results will help you decide how hot, cold, wet, or windy it might be!

Date:

Astronomy

Feb. 13, 2013 Rise Set
Actual Time 7:31 AM EST 6:07 PM EST
Civil Twilight 7:03 AM EST 6:35 PM EST
Nautical Twilight 6:30 AM EST 7:07 PM EST
Astronomical Twilight 5:58 AM EST 7:39 PM EST
Moon 8:57 AM EST (2/13) 10:11 PM EST (2/13)
Length of Visible Light 11h 32m
Length of Day
10h 35m
Waxing Crescent, 13% of the Moon is Illuminated
Feb 13
Waxing Crescent
Feb 17
First Quarter
Feb 25
Full
Mar 4
Last Quarter
Mar 11
New

Hourly Weather History & Observations

Time (EST) Temp. Windchill Dew Point Humidity Pressure Visibility Wind Dir Wind Speed Gust Speed Precip Events Conditions
12:53 AM 26.1 °F 20.5 °F 23.0 °F 88% 29.92 in 7.0 mi WSW 4.6 mph - N/A   Clear
1:39 AM 26.6 °F 20.0 °F 23.0 °F 86% 29.91 in 8.0 mi West 5.8 mph - N/A   Mostly Cloudy
1:53 AM 27.0 °F 20.5 °F 24.1 °F 89% 29.91 in 8.0 mi WNW 5.8 mph - N/A   Overcast
2:53 AM 28.0 °F 21.7 °F 24.1 °F 85% 29.90 in 9.0 mi NW 5.8 mph - N/A   Overcast
3:53 AM 28.0 °F 21.7 °F 21.9 °F 78% 29.89 in 10.0 mi NW 5.8 mph - N/A   Overcast
4:50 AM 28.4 °F 22.2 °F 21.2 °F 74% 29.87 in 10.0 mi North 5.8 mph - N/A   Overcast
4:53 AM 28.0 °F 21.7 °F 21.9 °F 78% 29.88 in 10.0 mi North 5.8 mph - N/A   Overcast
5:53 AM 27.0 °F 23.0 °F 21.9 °F 81% 29.86 in 10.0 mi NW 3.5 mph - N/A   Overcast
6:53 AM 27.0 °F 21.6 °F 21.9 °F 81% 29.85 in 9.0 mi North 4.6 mph - N/A   Overcast
7:53 AM 27.0 °F 19.5 °F 21.9 °F 81% 29.84 in 7.0 mi NNW 6.9 mph - N/A   Overcast
8:53 AM 27.0 °F 20.5 °F 21.0 °F 78% 29.83 in 7.0 mi NNE 5.8 mph - N/A   Overcast
9:53 AM 27.0 °F 20.5 °F 21.9 °F 81% 29.83 in 6.0 mi ENE 5.8 mph - N/A   Haze
10:53 AM 27.0 °F - 21.9 °F 81% 29.84 in 7.0 mi Calm Calm - N/A   Overcast
11:53 AM 28.0 °F - 21.9 °F 78% 29.82 in 7.0 mi Calm Calm - N/A   Overcast
12:53 PM 28.0 °F 21.7 °F 23.0 °F 81% 29.82 in 7.0 mi WSW 5.8 mph - N/A   Overcast
2:30 PM 28.4 °F 21.2 °F 23.0 °F 80% 29.77 in 8.0 mi NW 6.9 mph - N/A   Overcast
2:53 PM 30.0 °F 23.2 °F 24.1 °F 79% 29.78 in 8.0 mi Variable 6.9 mph - N/A   Overcast
3:15 PM 30.2 °F - 23.0 °F 75% 29.75 in 8.0 mi Calm Calm - N/A   Scattered Clouds
3:53 PM 30.9 °F 26.2 °F 23.0 °F 72% 29.77 in 8.0 mi West 4.6 mph - N/A   Clear
4:53 PM 32.0 °F 27.5 °F 24.1 °F 73% 29.77 in 9.0 mi WSW 4.6 mph - N/A   Clear
5:53 PM 30.0 °F - 24.1 °F 79% 29.78 in 7.0 mi Calm Calm - N/A   Clear
6:53 PM 28.0 °F 22.8 °F 24.1 °F 85% 29.80 in 7.0 mi SSW 4.6 mph - N/A   Clear
7:53 PM 27.0 °F 19.5 °F 23.0 °F 85% 29.81 in 7.0 mi South 6.9 mph - N/A   Clear
8:53 PM 28.0 °F 20.8 °F 23.0 °F 81% 29.82 in 6.0 mi SSE 6.9 mph - N/A   Haze
9:53 PM 27.0 °F 19.5 °F 23.0 °F 85% 29.83 in 7.0 mi South 6.9 mph - N/A   Clear
10:53 PM 28.9 °F 20.4 °F 25.0 °F 85% 29.82 in 8.0 mi South 9.2 mph - N/A   Clear
11:53 PM 30.0 °F 21.7 °F 26.1 °F 85% 29.82 in 9.0 mi South 9.2 mph - N/A   Scattered Clouds